Location: Unspecified
(22.7487°N, 0.0000°E)
Time: 01:14:53
(UTC+00:00)

Vanguard 3 - All Passes

Search period start: 04 April 2026 00:00
Search period end: 14 April 2026 00:00
Orbit: 508 x 3205 km, 33.3° (Epoch: 28 March)

Date Brightness Start Highest point End Pass type
(mag) Time Alt. Az. Time Alt. Az. Time Alt. Az.
4 Apr - 00:05:18 10° SSW 00:08:22 25° SE 00:11:53 10° E night (unlit)
4 Apr - 02:14:52 10° W 02:19:00 50° NNW 02:25:22 10° ENE visible
4 Apr - 04:25:55 10° WNW 04:31:41 38° N 04:41:20 10° ENE visible
4 Apr - 06:36:32 10° WNW 06:45:19 63° NNE 07:00:48 10° E daylight
4 Apr - 08:47:44 10° WNW 08:59:47 69° SSW 09:18:29 10° SE daylight
4 Apr - 11:02:16 10° W 11:15:20 31° SW 11:30:59 10° SSE daylight
5 Apr - 00:53:45 10° WSW 00:57:26 81° SSE 01:02:20 10° ENE night (unlit)
5 Apr - 03:04:38 10° WNW 03:09:04 35° N 03:16:00 10° ENE visible
5 Apr - 05:15:24 10° WNW 05:22:06 45° NNE 05:33:47 10° E visible
5 Apr - 07:25:54 10° WNW 07:35:45 86° NNE 07:52:54 10° ESE daylight
5 Apr - 09:38:03 10° WNW 09:50:35 46° SSW 10:08:18 10° SSE daylight
5 Apr - 11:57:02 10° WSW 12:06:32 17° SW 12:16:52 10° S daylight
5 Apr - 23:33:15 10° SSW 23:36:23 25° SE 23:39:38 10° E night (unlit)
6 Apr - 01:43:14 10° W 01:47:00 44° NNW 01:52:18 10° ENE visible
6 Apr - 03:54:20 10° WNW 03:59:22 34° N 04:07:27 10° ENE visible
6 Apr - 06:04:40 10° WNW 06:12:25 61° NNE 06:26:22 10° E daylight
6 Apr - 08:15:31 10° WNW 08:26:16 67° SSW 08:43:57 10° SE daylight
6 Apr - 10:29:41 10° W 10:41:35 29° SW 10:56:38 10° SSE daylight
7 Apr - 00:21:53 10° WSW 00:25:32 86° SSE 00:29:49 10° ENE night (unlit)
7 Apr - 02:33:05 10° WNW 02:36:58 30° N 02:42:38 10° ENE visible
7 Apr - 04:43:43 10° NW 04:49:37 42° NNE 04:59:40 10° E visible
7 Apr - 06:53:54 10° WNW 07:02:38 87° NNE 07:18:22 10° ESE daylight
7 Apr - 09:05:44 10° W 09:17:00 44° SSW 09:33:46 10° SSE daylight
7 Apr - 11:24:29 10° WSW 11:32:54 15° SW 11:42:20 10° S daylight
7 Apr - 23:01:00 10° SSW 23:04:24 27° SSE 23:07:36 10° E night (unlit)
8 Apr - 01:11:32 10° W 01:15:02 39° NNW 01:19:31 10° NE visible
8 Apr - 03:22:47 10° NW 03:27:10 30° N 03:33:50 10° ENE visible
8 Apr - 05:32:53 10° WNW 05:39:42 60° NNE 05:52:03 10° E daylight
8 Apr - 07:43:26 10° WNW 07:53:00 64° SSW 08:09:22 10° SE daylight
8 Apr - 09:57:19 10° W 10:08:00 27° SSW 10:22:04 10° SSE daylight
8 Apr - 21:41:51 10° SSE 21:42:54 11° SSE 21:43:55 10° SE night (unlit)
8 Apr - 23:49:52 10° WSW 23:53:39 89° NNW 23:57:31 10° ENE night (unlit)
9 Apr - 02:01:31 10° WNW 02:04:57 26° N 02:09:33 10° NE visible
9 Apr - 04:12:05 10° NW 04:17:16 38° NNE 04:25:47 10° E visible
9 Apr - 06:22:02 10° WNW 06:29:44 89° NNE 06:43:54 10° ESE daylight
9 Apr - 08:33:36 10° W 08:43:37 41° SSW 08:59:07 10° SSE daylight
9 Apr - 10:52:21 10° WSW 10:59:24 14° SSW 11:07:23 10° S daylight
9 Apr - 22:28:30 10° SW 22:32:26 31° SSE 22:35:45 10° E night (unlit)
10 Apr - 00:39:43 10° W 00:43:06 35° NNW 00:46:59 10° NE night (unlit)
10 Apr - 02:51:15 10° NW 02:55:02 26° N 03:00:26 10° ENE visible
10 Apr - 05:01:08 10° NW 05:07:11 57° NNE 05:17:55 10° E visible
10 Apr - 07:11:29 10° WNW 07:19:56 60° SSW 07:34:46 10° SE daylight
10 Apr - 09:25:11 10° W 09:34:36 24° SSW 09:47:17 10° SSE daylight
10 Apr - 21:08:02 10° S 21:10:48 14° SSE 21:13:08 10° ESE night (unlit)
10 Apr - 23:17:40 10° WSW 23:21:45 83° NNW 23:25:25 10° ENE night (unlit)
11 Apr - 01:29:53 10° WNW 01:32:58 23° N 01:36:42 10° NE visible
11 Apr - 03:40:29 10° NW 03:45:01 34° NNE 03:52:09 10° E visible
11 Apr - 05:50:14 10° WNW 05:57:01 90° SSW 06:09:34 10° ESE daylight
11 Apr - 08:01:37 10° W 08:10:28 37° SSW 08:24:24 10° SSE daylight
11 Apr - 10:20:51 10° SW 10:26:03 12° SSW 10:31:53 10° SSW daylight
11 Apr - 21:55:46 10° SW 22:00:28 36° SSE 22:04:00 10° E night (unlit)
12 Apr - 00:07:45 10° W 00:11:10 32° NNW 00:14:40 10° NE night (unlit)
12 Apr - 02:19:40 10° NW 02:22:59 22° N 02:27:18 10° ENE visible
12 Apr - 04:29:27 10° NW 04:34:47 55° NNE 04:44:01 10° E visible
12 Apr - 06:39:38 10° WNW 06:47:04 56° SSW 07:00:16 10° SE daylight
12 Apr - 08:53:17 10° WSW 09:01:23 21° SSW 09:12:22 10° SSE daylight
12 Apr - 20:34:25 10° SSW 20:38:41 18° SSE 20:41:56 10° ESE visible
12 Apr - 22:45:15 10° WSW 22:49:50 78° NNW 22:53:29 10° ENE night (unlit)
13 Apr - 00:58:08 10° WNW 01:00:58 20° N 01:04:07 10° NE night (unlit)
13 Apr - 03:08:52 10° NW 03:12:52 31° NNE 03:18:46 10° E visible
13 Apr - 05:18:29 10° WNW 05:24:29 87° SSW 05:35:25 10° ESE visible
13 Apr - 07:29:48 10° W 07:37:30 33° SSW 07:49:43 10° SSE daylight
13 Apr - 09:51:02 10° SW 09:52:50 10° SSW 09:54:43 10° SSW daylight
13 Apr - 21:22:46 10° SW 21:28:26 43° SSE 21:32:19 10° E visible
13 Apr - 23:35:35 10° W 23:39:14 31° NNW 23:42:34 10° NE night (unlit)
